Location: Table Mountain
(47.2500°N, 120.5778°W)
Time: 15:44:47
(UTC-08:00)

Vanguard 1 Rocket - All Passes

Search period start: 17 January 2018 00:00
Search period end: 27 January 2018 00:00
Orbit: 656 x 4222 km, 34.3° (Epoch: 16 January)

Date Brightness Start Highest point End Pass type
(mag) Time Alt. Az. Time Alt. Az. Time Alt. Az.
17 Jan - 06:48:04 10° SSW 06:54:44 18° SSE 06:59:30 10° SE visible
17 Jan - 09:13:45 10° SW 09:19:42 24° S 09:23:53 10° SE daylight
17 Jan - 11:40:46 10° SW 11:43:39 15° SSW 11:46:14 10° SSE daylight
18 Jan - 05:37:10 10° S 05:43:19 15° SSE 05:48:02 10° SE visible
18 Jan - 08:01:29 10° SW 08:08:56 24° S 08:13:51 10° ESE daylight
18 Jan - 10:28:37 10° WSW 10:33:18 21° SSW 10:36:54 10° SE daylight
19 Jan - 04:28:54 10° SSE 04:31:36 11° SSE 04:34:01 10° SE visible
19 Jan - 06:49:09 10° SSW 06:57:51 23° SSE 07:03:31 10° ESE visible
19 Jan - 09:16:16 10° WSW 09:22:48 26° S 09:27:14 10° SE daylight
19 Jan - 11:44:21 10° SW 11:46:36 13° SSW 11:48:39 10° S daylight
20 Jan - 05:37:08 10° SSW 05:46:25 20° SSE 05:52:43 10° ESE visible
20 Jan - 08:03:35 10° SW 08:12:03 29° S 08:17:21 10° ESE daylight
20 Jan - 10:31:36 10° WSW 10:36:19 20° SSW 10:39:55 10° SSE daylight
21 Jan - 04:26:04 10° S 04:34:37 16° SSE 04:40:57 10° ESE visible
21 Jan - 06:50:41 10° SW 07:00:57 28° S 07:07:13 10° ESE visible
21 Jan - 09:18:54 10° WSW 09:25:52 27° S 09:30:29 10° SE daylight
21 Jan - 11:49:01 10° SW 11:49:29 10° SSW 11:49:55 10° SSW daylight
22 Jan - 03:17:52 10° SSE 03:22:31 11° SSE 03:26:34 10° SE visible
22 Jan - 05:37:53 10° SSW 05:49:28 26° SSE 05:56:42 10° ESE visible
22 Jan - 08:05:51 10° WSW 08:15:08 32° S 08:20:44 10° ESE daylight
22 Jan - 10:34:41 10° WSW 10:39:15 18° SSW 10:42:45 10° SSE daylight
23 Jan - 04:25:41 10° SSW 04:37:36 22° SSE 04:45:34 10° ESE visible
23 Jan - 06:52:30 10° SW 07:04:01 33° S 07:10:43 10° ESE visible
23 Jan - 09:21:37 10° WSW 09:28:52 27° SSW 09:33:36 10° SE daylight
24 Jan - 03:14:51 10° S 03:25:24 17° SSE 03:33:15 10° ESE visible
24 Jan - 05:39:06 10° SW 05:52:29 32° SSE 06:00:23 10° ESE visible
24 Jan - 08:08:15 10° WSW 08:18:10 34° S 08:24:01 10° SE daylight
24 Jan - 10:37:56 10° WSW 10:42:06 16° SSW 10:45:22 10° S daylight
25 Jan - 02:07:47 10° SSE 02:12:59 11° SE 02:17:34 10° SE visible
25 Jan - 04:26:05 10° SSW 04:40:33 28° SSE 04:49:34 10° ESE visible
25 Jan - 06:54:30 10° WSW 07:07:03 37° S 07:14:06 10° ESE visible
25 Jan - 09:24:25 10° WSW 09:31:48 26° SSW 09:36:38 10° SSE daylight
26 Jan - 03:14:03 10° SSW 03:28:13 23° SSE 03:37:57 10° ESE visible
26 Jan - 05:40:36 10° SW 05:55:28 37° S 06:03:53 10° ESE visible
26 Jan - 08:10:44 10° WSW 08:21:08 35° SSW 08:27:12 10° SE daylight
26 Jan - 10:41:30 10° WSW 10:44:51 14° SW 10:47:37 10° S daylight
